Location: Del Amo
(33.8464°N, 118.2104°W)
Time: 19:31:51
(UTC+00:00)

Vanguard 1 Rocket - Pass Details

Date: 13 September 2024
Orbit: 650 x 4218 km, 34.3° (Epoch: 04 October)

Event Time Altitude Azimuth Distance (km) Brightness Sun altitude
Rises 17:22:10 0° 288° (WNW) 7,858 11.7 44.3°
Reaches altitude 10° 17:27:11 10° 286° (WNW) 7,094 11.6 45.2°
Maximum altitude 17:52:38 64° 212° (SSW) 4,316 11.7 49.3°
Drops below altitude 10° 18:12:59 10° 135° (SE) 5,851 12.4 52.3°
Sets 18:16:40 0° 132° (SE) 6,489 12.3 52.8°
